Showing default

GALILEO 10 (206), 40890

Orbit data source: Space-Track

GALILEO 10 (206), 40890 is a payload satellite owned by GNSS Agency (ESA) that was launched on Fri, 11 Sep 2015 UTC via a SOYUZ-ST-B launch vehicle from the French Guiana (FRGUI). Payload-class satellites include a variety of spacecraft equipped with specific instruments for various scientific and technological missions. These include communications satellites like Starlink; space stations such as the ISS; scientific satellites like the Hubble; Earth observation satellites from companies like Planet Labs, Umbra, and HawkEye 360; GPS; miniature CubeSats for education and research; and military/defense satellites.

Loading next visibility...
Identifier
40890, 2015-045B
Orbit
Active
Country
Flag of ESAESA
Related business
Manufacturer
OHB
Mission
Operational Civil Navigation
Bus & Motor
GALILEOSAT, AOCS
Mass
733 kg wet, 660 kg dry
Launch date (UTC)
2015-09-11 (10 years ago)
Launch vehicle
SOYUZ-ST-B
Launch site
French Guiana (FRGUI)
Object type
Payload
Rocket body
Debris
Shape & HBR
Box + 2 Pan, 7.3 m
Radar Cross Section
9.223 m², Large (>1 m²)

Expand to show TLE details & history
Last TLE update: 2 days ago

TLE from 2 days ago
0 GALILEO 10 (206)
1 40890U 15045B   25311.14175640  .00000004  00000-0  00000-0 0  9990
2 40890  55.0165 227.7366 0003132  22.5111 337.5426  1.70472821 63257
Epoch: 2025-11-07T03:24Z
TLE epoch observation values (Epoch: 2025-11-07T03:24:07.752Z)
Latitude
-0.00002°
Longitude
130.10321°
Altitude
23,214.011 km
Speed
3.671 km/s
True Right ascension
15h 10m 54s
True Declination
0° 00' 00"
Sunlit
Object was in daylight at epoch
Visualization orbit readout
Latitude
Unknown
Longitude
Unknown
Altitude
Unknown
Speed
Unknown
Apparent Right ascension
Unknown
Apparent Declination
Unknown
Sunlit
N/A
Visualization observer readout
Local Sidereal Time
01:05:16
Azimuth
Unknown
Elevation
Unknown
Doppler factor
Unknown
Orbital elements
Apogee altitude
23,231.598 km
Perigee altitude
23,213.057 km
Semi-major axis
29,600.464 km
Eccentricity
0.00031
Inclination
55.0165°
RAAN
227.7366°
Arg. of periapsis
22.5111°
True anomaly
337.52889°
Mean anomaly
337.5426°
Eccentric anomaly
337.53574°
Mean motion
0.42618 °/min
Orbital period
844.71 mins
BSTAR
0
Loading maneuver chart data...
Computing Atmospheric mass density...
Loading historical data...
Loading historical data...
Loading historical data...
Loading historical data...
Loading historical data...
Loading historical data...
Loading historical data...
Other satellites on launch #45 in the year 2015 (2015-09-11 UTC)

Documentation

Showing up to 5 results
|